User: anonymous   Login
Location: Sternwarte Hubelmatt
(47.0367°N, 8.3053°E)
Time: 01:20:38
(UTC+02:00)
Language:

BEESAT - Orbit

View from above orbital plane
View from above orbital plane
View from above satellite
View from above satellite

Ground track
Ground track

The orbit data is extracted from the following two-line orbital elements,

1 35933U 09051C   24109.21713769  .00002900  00000-0  63383-3 0  9997
2 35933  98.4724 352.3039 0006197 144.8234 215.3375 14.58556950773880
Epoch (UTC): 18 April 2024 05:12:40
Eccentricity: 0.0006197
inclination: 98.4724°
perigee height: 693 km
apogee height: 702 km
right ascension of ascending node: 352.3039°
argument of perigee: 144.8234°
revolutions per day: 14.58556950
mean anomaly at epoch: 215.3375°
orbit number at epoch: 77388

The dashed part of the orbit path shows where the satellite is in the earth's shadow,  

DLR